Weather History for Olympia, WA

Change the Weather History Date:

Wednesday, June 5, 2013

  Actual Average Record
Temperature  
Mean Temperature 65 °F 58 °F  
Max Temperature 80 °F 69 °F 93 °F (1978)
Min Temperature 49 °F 46 °F 31 °F (1976)
Degree Days  
Heating Degree Days 0 8  
Month to date heating degree days 18 40  
Since 1 June heating degree days 18 40  
Since 1 July heating degree days 5099 5236  
Cooling Degree Days 0 0  
Month to date cooling degree days 0 0  
Year to date cooling degree days 2 3  
Since 1 June cooling degree days 0 0  
Growing Degree Days 14 (Base 50)    
Moisture  
Dew Point 53 °F    
Average Humidity 69    
Maximum Humidity 96    
Minimum Humidity 42    
Precipitation  
Precipitation 0.00 in 0.07 in 0.54 in (2005)
Month to date precipitation 0.00 0.36  
Year to date precipitation 19.56 24.63  
Sea Level Pressure  
Sea Level Pressure 30.07 in    
Wind  
Wind Speed 3 mph (North)    
Max Wind Speed 12 mph    
Max Gust Speed 14 mph    
Visibility 10 miles    
Events      
T = Trace of Precipitation, MM = Missing Value Source: NWS Daily Summary

Daily Weather History Graph

Daily Weather History Graph

Search for Another Location

Airport:

Trip Planner

Search our weather history database for the weather conditions in past years. The results will help you decide how hot, cold, wet, or windy it might be!

Date:

Astronomy

Jun. 05, 2013 Rise Set
Actual Time 5:18 AM PDT 9:02 PM PDT
Civil Twilight 4:39 AM PDT 9:41 PM PDT
Nautical Twilight 3:46 AM PDT 10:34 PM PDT
Astronomical Twilight 2:32 AM PDT 11:49 PM PDT
Moon 3:35 AM PDT (6/5) 6:26 PM PDT (6/5)
Length of Visible Light 17h 02m
Length of Day
15h 44m
Waning Crescent, 7% of the Moon is Illuminated
Jun 5
Waning Crescent
Jun 8
New
Jun 16
First Quarter
Jun 23
Full
Jun 29
Last Quarter

Hourly Weather History & Observations

Time (PDT) Temp. Dew Point Humidity Pressure Visibility Wind Dir Wind Speed Gust Speed Precip Events Conditions
12:54 AM 54.0 °F 51.1 °F 90% 30.06 in 10.0 mi Calm Calm - N/A   Clear
1:54 AM 53.1 °F 51.1 °F 93% 30.06 in 10.0 mi Calm Calm - N/A   Clear
2:54 AM 52.0 °F 50.0 °F 93% 30.06 in 10.0 mi Calm Calm - N/A   Clear
3:54 AM 51.1 °F 50.0 °F 96% 30.06 in 10.0 mi Calm Calm - N/A   Clear
4:54 AM 50.0 °F 48.9 °F 96% 30.06 in 10.0 mi Calm Calm - N/A   Clear
5:54 AM 50.0 °F 48.9 °F 96% 30.06 in 9.0 mi Calm Calm - N/A   Clear
6:54 AM 54.0 °F 51.1 °F 90% 30.08 in 10.0 mi Calm Calm - N/A   Clear
7:54 AM 55.9 °F 52.0 °F 87% 30.10 in 10.0 mi Calm Calm - N/A   Clear
8:54 AM 57.9 °F 53.1 °F 84% 30.10 in 10.0 mi Calm Calm - N/A   Clear
9:54 AM 63.0 °F 52.0 °F 67% 30.11 in 10.0 mi South 3.5 mph - N/A   Clear
10:54 AM 68.0 °F 52.0 °F 56% 30.11 in 10.0 mi Calm Calm - N/A   Mostly Cloudy
11:54 AM 70.0 °F 51.1 °F 51% 30.10 in 10.0 mi Variable 3.5 mph - N/A   Scattered Clouds
12:54 PM 73.0 °F 50.0 °F 44% 30.09 in 10.0 mi Variable 4.6 mph - N/A   Scattered Clouds
1:54 PM 75.0 °F 53.1 °F 46% 30.09 in 10.0 mi ENE 4.6 mph - N/A   Partly Cloudy
2:54 PM 75.9 °F 54.0 °F 46% 30.07 in 10.0 mi North 6.9 mph - N/A   Partly Cloudy
3:54 PM 78.1 °F 54.0 °F 43% 30.06 in 10.0 mi Variable 3.5 mph - N/A   Partly Cloudy
4:54 PM 79.0 °F 55.0 °F 44% 30.04 in 10.0 mi NNE 6.9 mph - N/A   Partly Cloudy
5:54 PM 78.1 °F 55.9 °F 46% 30.03 in 10.0 mi North 8.1 mph - N/A   Partly Cloudy
6:54 PM 73.9 °F 57.9 °F 57% 30.02 in 10.0 mi NNW 9.2 mph - N/A   Partly Cloudy
7:54 PM 71.1 °F 55.9 °F 59% 30.03 in 10.0 mi NW 5.8 mph - N/A   Clear
8:54 PM 66.9 °F 55.9 °F 68% 30.04 in 10.0 mi North 5.8 mph - N/A   Clear
9:54 PM 64.0 °F 55.0 °F 73% 30.04 in 10.0 mi NNE 4.6 mph - N/A   Clear
10:54 PM 61.0 °F 54.0 °F 78% 30.05 in 10.0 mi NNE 4.6 mph - N/A   Clear
11:54 PM 60.1 °F 54.0 °F 80% 30.05 in 10.0 mi North 3.5 mph - N/A   Clear